{"data":{"norad_id":65742,"epoch":"2026-05-24T23:29:58.261920Z","epoch_age_seconds":66946,"freshness":"FRESH","line1":"1 65742U 25216J   26144.97914655  .00013906  00000+0  48066-3 0  9998","line2":"2 65742  53.1608 338.5519 0001028  94.5404 265.5715 15.30207015 37140","mean_motion":15.30207015,"eccentricity":0.0001028,"inclination_deg":53.1608,"raan_deg":338.5519,"arg_perigee_deg":94.5404,"mean_anomaly_deg":265.5715,"bstar":0.00048066,"rev_number":3714,"period_min":94.104914294881,"perigee_km":474.48960153426,"apogee_km":475.89864641335,"semimajor_km":6853.3311239738,"source":"CELESTRAK","updated_at":"2026-05-25T13:38:20.930748Z"}}